Regional Weather Roundup
Issued by NWS

Home | Current Version | Previous Version | Graphics & Text | Print | Product List | Glossary On
Versions: 1 2 3 4 5 6 7 8 9 10 11 12 13 14 15 16 17 18 19 20 21 22 23 24 25 26 27 28 29 30 31 32 33 34 35 36 37 38 39 40 41 42 43 44 45 46 47 48 49 50
753
ASUS44 KLIX 310511
RWRLA
LOUISIANA WEATHER ROUNDUP
NATIONAL WEATHER SERVICE NEW ORLEANS LA
1200 AM CDT TUE MAR 31 2015

NOTE: "FAIR" INDICATES FEW OR NO CLOUDS BELOW 12,000 FEET WITH NO
      SIGNIFICANT WEATHER AND/OR OBSTRUCTIONS TO VISIBILITY.
      SKY/WX - SKY CONDITION AND SIGNIFICANT WEATHER.
      TMP - AIR TEMPERATURE.    DP   - DEWPOINT TEMPERATURE.
      RH  - RELATIVE HUMIDITY.  PRES - PRESSURE.
      HX  - HEAT INDEX.         WCI  - WIND CHILL INDEX.

*  THESE STATIONS ARE NOT NWS OR FAA STATIONS AND ARE NOT UNDER
   NWS QUALITY CONTROL.

LAZ040-048-061>063-065-066-069-310600-
SOUTHEAST LOUISIANA

CITY           SKY/WX    TMP DP  RH WIND       PRES   REMARKS
N.O. AUDUBON     N/A     64  64 100 MISG        N/A
N.O. INTL ARPT CLEAR     67  61  81 SW8       30.16F
N.O. LAKEFRONT CLEAR     71  63  75 SW8       30.16F
SLIDELL        CLEAR     70  63  78 SW3       30.15S
BATON ROUGE    CLEAR     66  61  84 SW10      30.15F
BOOTHVILLE     CLEAR     70  67  90 SW7       30.18S
BELLE CHASSE   CLEAR     64  62  93 SW5       30.16F
BOGALUSA*        N/A     67  60  77 SW3       30.15F
GALLIANO*      CLEAR     62  61  96 SW6       30.17F
NEW ROADS*     FAIR      65  60  81 S8        30.14F
GONZALES*      FAIR      64  64  99 CALM      30.16S
HAMMOND*       CLEAR     68  59  73 W3        30.17S
HOUMA*         FOG       62  62  99 CALM      30.17S VSB 3/4
PORT FOURCHON* CLEAR     72  68  88 SW5       30.21S

$$

LAZ041-044-053-054-310600-
SOUTHWEST LOUISIANA

CITY           SKY/WX    TMP DP  RH WIND       PRES   REMARKS
LAKE CHARLES   CLEAR     65  64  97 S3        30.13F
LAFAYETTE      CLEAR     64  61  90 S5        30.16S
PATTERSON      CLEAR     63  61  94 CALM      30.18S
SALT POINT       N/A     64  62  93 CALM      30.16S
NEW IBERIA     CLEAR     62  60  93 S3        30.17S
CHENAULT AIRPK   N/A     61  61  99 S3        30.14F FOG

$$

LAZ027-028-310600-
CENTRAL LOUISIANA

CITY           SKY/WX    TMP DP  RH WIND       PRES   REMARKS
FORT POLK      CLEAR     65  63  90 S6        30.12S
ALEXANDRIA INT CLEAR     67  62  84 SW10      30.10F
ALEXANDRIA     CLEAR     65  60  84 SW3       30.12F

$$

LAZ001-002-310600-
NORTHWEST LOUISIANA

CITY           SKY/WX    TMP DP  RH WIND       PRES   REMARKS
SHREVEPORT     CLOUDY    60  58  92 SE3       30.07F
BARKSDALE AFB  CLEAR     61  61 100 S6        30.07F
DTN SHREVEPORT CLEAR     61  58  90 SE6       30.07F

$$

LAZ014-016-310600-
NORTHEAST LOUISIANA

CITY           SKY/WX    TMP DP  RH WIND       PRES   REMARKS
MONROE         CLEAR     61  61 100 CALM      30.09F FOG
TALLULAH       CLEAR     58  56  93 CALM      30.10F

$$




USA.gov is the U.S. government's official web portal to all federal, state and local government web resources and services.